Location: Alladorf
(49.9620°N, 11.3790°E)
Time: 21:13:01
(UTC+00:00)

Aureole 2 Rocket - Pass Details

Date: 29 November 2020
Orbit: 289 x 388 km, 73.9° (Epoch: 24 January)

Event Time Altitude Azimuth Distance (km) Brightness Sun altitude
Rises 05:18:30 0° 201° (SSW) 1,958 5.6 -13.9°
Reaches altitude 10° 05:20:22 10° 200° (SSW) 1,141 4.4 -13.6°
Maximum altitude 05:22:50 81° 113° (ESE) 301 1.5 -13.3°
Drops below altitude 10° 05:25:20 10° 26° (NNE) 1,161 4.6 -12.9°
Sets 05:27:15 0° 25° (NNE) 1,997 5.8 -12.6°
